This is the latest recevied weather packets stored in our database for station/object KH6DH-13. If no packets are shown the sender has not sent any weather packets the latest 10 day(s).
| Time | Temp. | Humidity | Pressure | Rain* | Wind** | Luminosity | Snow |
|---|---|---|---|---|---|---|---|
| 1777825420 | 22.22° C | - | - | 0 mm | 0.89 m/s, 30° | - | - |
| 1777824819 | 22.22° C | - | - | 0 mm | 0.89 m/s, 132° | - | - |
| 1777824218 | 22.78° C | - | - | 0 mm | 1.34 m/s, 65° | - | - |
| 1777823617 | 22.22° C | - | - | 0 mm | 0 m/s | - | - |
| 1777823016 | 22.22° C | - | - | 0 mm | 0.45 m/s, 108° | - | - |
| 1777822415 | 22.22° C | - | - | 0 mm | 0 m/s | - | - |
| 1777821814 | 22.22° C | - | - | 0 mm | 0 m/s | - | - |
| 1777821213 | 22.22° C | - | - | 0 mm | 0.89 m/s, 89° | - | - |
| 1777820612 | 22.78° C | - | - | 0 mm | 1.34 m/s, 52° | - | - |
| 1777820011 | 22.22° C | - | - | 0 mm | 0.89 m/s, 82° | - | - |
| 1777819410 | 22.22° C | - | - | 0 mm | 0 m/s | - | - |
| 1777818809 | 22.78° C | - | - | 0 mm | 0 m/s | - | - |
| 1777818208 | 22.78° C | - | - | 0 mm | 0.89 m/s, 46° | - | - |
| 1777817607 | 22.78° C | - | - | 0 mm | 1.34 m/s, 56° | - | - |
| 1777817006 | 22.78° C | - | - | 0 mm | 0.89 m/s, 262° | - | - |
| 1777816405 | 22.78° C | - | - | 0 mm | 0 m/s | - | - |
| 1777815804 | 22.78° C | - | - | 0 mm | 0 m/s | - | - |
| 1777815203 | 22.22° C | - | - | 0 mm | 1.34 m/s, 354° | - | - |
| 1777814602 | 22.78° C | - | - | 0 mm | 0.45 m/s, 308° | - | - |
| 1777814001 | 22.78° C | - | - | 0 mm | 0.45 m/s, 89° | - | - |
| 1777813400 | 22.78° C | - | - | 0 mm | 2.24 m/s, 163° | - | - |
| 1777812799 | 22.78° C | - | - | 0 mm | 0.89 m/s, 15° | - | - |
| 1777812198 | 22.78° C | - | - | 0 mm | 0 m/s | - | - |
| 1777811597 | 22.78° C | - | - | 0 mm | 1.79 m/s, 21° | - | - |
| 1777810996 | 22.78° C | - | - | 0 mm | 1.79 m/s, 31° | - | - |
* Rain latest hour (hover to see other rain measurements)
** Current wind speed in m/s (hover to see current wind gust speed)